SB KEPS @ AMSAT $ORB16273.O Orbital Elements 16273.OSCAR
HR AMSAT ORBITAL ELEMENTS FOR OSCAR SATELLITES FROM WA5QGD FORT WORTH,TX September 29, 2016 BID: ORB16273.O TO ALL RADIO AMATEURS BT
Satellite: AO-07 Catalog number: 07530 Epoch time: 16273.53414553 Element set: 999 Inclination: 101.5885 deg RA of node: 241.7982 deg Eccentricity: 0.0012355 Arg of perigee: 106.9114 deg Mean anomaly: 14.5617 deg Mean motion: 12.53623341 rev/day Decay rate: -4.1e-07 rev/day^2 Epoch rev: 91619 Checksum: 294
Satellite: FO-29 Catalog number: 24278 Epoch time: 16272.98927349 Element set: 999 Inclination: 98.5820 deg RA of node: 184.6121 deg Eccentricity: 0.0349434 Arg of perigee: 293.9583 deg Mean anomaly: 62.5335 deg Mean motion: 13.53070977 rev/day Decay rate: -5.5e-07 rev/day^2 Epoch rev: 99355 Checksum: 370
Satellite: RS-22 Catalog number: 27939 Epoch time: 16273.82570539 Element set: 999 Inclination: 97.9039 deg RA of node: 61.5589 deg Eccentricity: 0.0012404 Arg of perigee: 338.5121 deg Mean anomaly: 158.5514 deg Mean motion: 14.66459013 rev/day Decay rate: 2.99e-06 rev/day^2 Epoch rev: 69515 Checksum: 348
Satellite: AO-73 Catalog number: 39444 Epoch time: 16273.13227627 Element set: 999 Inclination: 97.6699 deg RA of node: 322.2323 deg Eccentricity: 0.0059699 Arg of perigee: 42.2816 deg Mean anomaly: 318.2977 deg Mean motion: 14.81186526 rev/day Decay rate: 7.62e-06 rev/day^2 Epoch rev: 15296 Checksum: 361
Satellite: EO-79 Catalog number: 40025 Epoch time: 16273.68793249 Element set: 999 Inclination: 97.9194 deg RA of node: 179.0755 deg Eccentricity: 0.0014147 Arg of perigee: 81.6257 deg Mean anomaly: 278.6563 deg Mean motion: 14.88134426 rev/day Decay rate: 9.01e-06 rev/day^2 Epoch rev: 12374 Checksum: 355
Satellite: XW-2A Catalog number: 40903 Epoch time: 16273.80929039 Element set: 999 Inclination: 97.4425 deg RA of node: 290.2578 deg Eccentricity: 0.0017295 Arg of perigee: 117.8354 deg Mean anomaly: 242.4645 deg Mean motion: 15.37140019 rev/day Decay rate: 5.606e-05 rev/day^2 Epoch rev: 5762 Checksum: 325
Satellite: XW-2C Catalog number: 40906 Epoch time: 16273.81330179 Element set: 999 Inclination: 97.4547 deg RA of node: 278.6625 deg Eccentricity: 0.0016678 Arg of perigee: 41.0635 deg Mean anomaly: 319.1849 deg Mean motion: 15.13892621 rev/day Decay rate: 2.437e-05 rev/day^2 Epoch rev: 5683 Checksum: 338
Satellite: LILACSAT-2 Catalog number: 40908 Epoch time: 16273.83434345 Element set: 999 Inclination: 97.4618 deg RA of node: 278.4974 deg Eccentricity: 0.0017342 Arg of perigee: 35.2788 deg Mean anomaly: 324.9587 deg Mean motion: 15.12728568 rev/day Decay rate: 1.377e-05 rev/day^2 Epoch rev: 5680 Checksum: 358
/EX SB KEPS @ AMSAT $ORB16273.D Orbital Elements 16273.MICROS
HR AMSAT ORBITAL ELEMENTS FOR THE MICROSATS FROM WA5QGD FORT WORTH,TX September 29, 2016 BID: ORB16273.D TO ALL RADIO AMATEURS BT
Satellite: UO-11 Catalog number: 14781 Epoch time: 16273.09190537 Element set: 999 Inclination: 97.7379 deg RA of node: 321.8506 deg Eccentricity: 0.0007973 Arg of perigee: 344.8045 deg Mean anomaly: 15.2929 deg Mean motion: 14.82798907 rev/day Decay rate: 2.61e-06 rev/day^2 Epoch rev: 75165 Checksum: 350
Satellite: LO-19 Catalog number: 20442 Epoch time: 16273.04569380 Element set: 999 Inclination: 98.5485 deg RA of node: 206.5657 deg Eccentricity: 0.0011360 Arg of perigee: 193.9877 deg Mean anomaly: 166.0994 deg Mean motion: 14.32831224 rev/day Decay rate: 4.0e-07 rev/day^2 Epoch rev: 39422 Checksum: 328
Satellite: AO-27 Catalog number: 22825 Epoch time: 16273.41262777 Element set: 999 Inclination: 98.7718 deg RA of node: 230.3651 deg Eccentricity: 0.0008837 Arg of perigee: 20.4275 deg Mean anomaly: 339.7259 deg Mean motion: 14.29969686 rev/day Decay rate: 2.7e-07 rev/day^2 Epoch rev: 20013 Checksum: 340
Satellite: IO-26 Catalog number: 22826 Epoch time: 16273.43337272 Element set: 999 Inclination: 98.7661 deg RA of node: 230.4982 deg Eccentricity: 0.0009197 Arg of perigee: 11.2488 deg Mean anomaly: 348.8898 deg Mean motion: 14.30295711 rev/day Decay rate: 3.1e-07 rev/day^2 Epoch rev: 20030 Checksum: 321
Satellite: GO-32 Catalog number: 25397 Epoch time: 16273.51297593 Element set: 999 Inclination: 98.5761 deg RA of node: 215.7904 deg Eccentricity: 0.0002240 Arg of perigee: 60.9426 deg Mean anomaly: 299.1977 deg Mean motion: 14.23603623 rev/day Decay rate: 2.0e-08 rev/day^2 Epoch rev: 94670 Checksum: 331
Satellite: NO-44 Catalog number: 26931 Epoch time: 16273.09967928 Element set: 999 Inclination: 67.0521 deg RA of node: 44.8173 deg Eccentricity: 0.0005337 Arg of perigee: 266.8680 deg Mean anomaly: 93.1811 deg Mean motion: 14.30426165 rev/day Decay rate: 2.0e-08 rev/day^2 Epoch rev: 78300 Checksum: 314
Satellite: SO-50 Catalog number: 27607 Epoch time: 16273.15736908 Element set: 999 Inclination: 64.5554 deg RA of node: 203.1741 deg Eccentricity: 0.0056264 Arg of perigee: 193.3192 deg Mean anomaly: 166.6429 deg Mean motion: 14.75215736 rev/day Decay rate: 1.63e-06 rev/day^2 Epoch rev: 74060 Checksum: 322
Satellite: CO-55 Catalog number: 27844 Epoch time: 16273.45216442 Element set: 999 Inclination: 98.6936 deg RA of node: 280.2458 deg Eccentricity: 0.0010220 Arg of perigee: 27.6640 deg Mean anomaly: 332.5080 deg Mean motion: 14.21979851 rev/day Decay rate: 1.20e-06 rev/day^2 Epoch rev: 68726 Checksum: 319
Satellite: CO-57 Catalog number: 27848 Epoch time: 16273.31159476 Element set: 999 Inclination: 98.7032 deg RA of node: 280.2492 deg Eccentricity: 0.0010285 Arg of perigee: 36.2531 deg Mean anomaly: 323.9342 deg Mean motion: 14.21602675 rev/day Decay rate: 9.9e-07 rev/day^2 Epoch rev: 68713 Checksum: 329
Satellite: CO-65 Catalog number: 32785 Epoch time: 16273.15744819 Element set: 999 Inclination: 97.5945 deg RA of node: 303.0047 deg Eccentricity: 0.0012081 Arg of perigee: 318.0610 deg Mean anomaly: 41.9681 deg Mean motion: 14.87673105 rev/day Decay rate: 6.46e-06 rev/day^2 Epoch rev: 45608 Checksum: 328
Satellite: PRISM Catalog number: 33493 Epoch time: 16273.67991311 Element set: 999 Inclination: 98.2028 deg RA of node: 138.6286 deg Eccentricity: 0.0014286 Arg of perigee: 219.9813 deg Mean anomaly: 140.0361 deg Mean motion: 14.95164532 rev/day Decay rate: 9.44e-06 rev/day^2 Epoch rev: 41684 Checksum: 326
Satellite: TISAT-1 Catalog number: 36799 Epoch time: 16273.82121558 Element set: 999 Inclination: 98.0391 deg RA of node: 25.7755 deg Eccentricity: 0.0013887 Arg of perigee: 101.8006 deg Mean anomaly: 258.4769 deg Mean motion: 14.90000447 rev/day Decay rate: 1.284e-05 rev/day^2 Epoch rev: 33700 Checksum: 324
Satellite: ALMASAT-1 Catalog number: 38078 Epoch time: 16272.95303314 Element set: 999 Inclination: 069.4471 deg RA of node: 108.6646 deg Eccentricity: 0.0363529 Arg of perigee: 311.9526 deg Mean anomaly: 045.1170 deg Mean motion: 15.08969410 rev/day Decay rate: 2.7833e-04 rev/day^2 Epoch rev: 24520 Checksum: 322
Satellite: DUCHIFAT-1 Catalog number: 40021 Epoch time: 16273.68510823 Element set: 999 Inclination: 97.9231 deg RA of node: 180.4106 deg Eccentricity: 0.0014739 Arg of perigee: 79.3770 deg Mean anomaly: 280.9106 deg Mean motion: 14.89484814 rev/day Decay rate: 1.348e-05 rev/day^2 Epoch rev: 12381 Checksum: 312
Satellite: NANOSATCBR1 Catalog number: 40024 Epoch time: 16273.70819599 Element set: 999 Inclination: 97.9201 deg RA of node: 179.6990 deg Eccentricity: 0.0013964 Arg of perigee: 79.7310 deg Mean anomaly: 280.5480 deg Mean motion: 14.88869577 rev/day Decay rate: 1.108e-05 rev/day^2 Epoch rev: 12378 Checksum: 353
Satellite: DTUSAT-2 Catalog number: 40030 Epoch time: 16273.69509172 Element set: 999 Inclination: 97.9169 deg RA of node: 178.4446 deg Eccentricity: 0.0013585 Arg of perigee: 76.3026 deg Mean anomaly: 283.9701 deg Mean motion: 14.87767908 rev/day Decay rate: 8.73e-06 rev/day^2 Epoch rev: 12371 Checksum: 344
Satellite: ANTELSAT Catalog number: 40034 Epoch time: 16273.67552356 Element set: 999 Inclination: 97.8881 deg RA of node: 159.1768 deg Eccentricity: 0.0060472 Arg of perigee: 50.7936 deg Mean anomaly: 309.8623 deg Mean motion: 14.73480317 rev/day Decay rate: 4.59e-06 rev/day^2 Epoch rev: 12256 Checksum: 335
/EX SB KEPS @ AMSAT $ORB16273.W Orbital Elements 16273.WEATHER
HR AMSAT ORBITAL ELEMENTS FOR WEATHER SATELLITES FROM WA5QGD FORT WORTH,TX September 29, 2016 BID: ORB16273.W TO ALL RADIO AMATEURS BT
Satellite: MET-2/21 Catalog number: 22782 Epoch time: 16273.06785341 Element set: 999 Inclination: 82.5489 deg RA of node: 230.7869 deg Eccentricity: 0.0023947 Arg of perigee: 83.5934 deg Mean anomaly: 325.2858 deg Mean motion: 13.83791565 rev/day Decay rate: 5.0e-07 rev/day^2 Epoch rev: 16558 Checksum: 356
Satellite: NOAA-15 Catalog number: 25338 Epoch time: 16273.50782903 Element set: 999 Inclination: 98.7855 deg RA of node: 277.8789 deg Eccentricity: 0.0009630 Arg of perigee: 240.5614 deg Mean anomaly: 119.4605 deg Mean motion: 14.25755437 rev/day Decay rate: 6.5e-07 rev/day^2 Epoch rev: 95585 Checksum: 360
Satellite: NOAA-18 Catalog number: 28654 Epoch time: 16273.48911347 Element set: 999 Inclination: 99.1979 deg RA of node: 283.1348 deg Eccentricity: 0.0015308 Arg of perigee: 83.3800 deg Mean anomaly: 276.9112 deg Mean motion: 14.12306832 rev/day Decay rate: 4.3e-07 rev/day^2 Epoch rev: 58545 Checksum: 332
Satellite: NOAA-19 Catalog number: 33591 Epoch time: 16273.45842529 Element set: 999 Inclination: 99.0524 deg RA of node: 231.1467 deg Eccentricity: 0.0013033 Arg of perigee: 287.6063 deg Mean anomaly: 72.3685 deg Mean motion: 14.12110734 rev/day Decay rate: 1.36e-06 rev/day^2 Epoch rev: 39385 Checksum: 314
/EX SB KEPS @ AMSAT $ORB16273.M Orbital Elements 16273.MISC
HR AMSAT ORBITAL ELEMENTS FOR MANNED AND MISCELLANEOUS SATELLITES FROM WA5QGD FORT WORTH,TX September 29, 2016 BID: ORB16273.M TO ALL RADIO AMATEURS BT
